Showing default

LEMUR 2 KREMPEL-BRO1, 63357

Orbit data source: Space-Track

LEMUR 2 KREMPEL-BRO1, 63357 is a payload satellite owned by OroraTech (US) in SSO that was launched on Wed, 26 Mar 2025 UTC via an ELECTRON launch vehicle from the Rocket Lab Launch Complex (RLLC). Payload-class satellites include a variety of spacecraft equipped with specific instruments for various scientific and technological missions. These include communications satellites like Starlink; space stations such as the ISS; scientific satellites like the Hubble; Earth observation satellites from companies like Planet Labs, Umbra, and HawkEye 360; GPS; miniature CubeSats for education and research; and military/defense satellites.

Loading next visibility...
Identifier
63357, 2025-061G
Orbit
SSO
Country
Flag of USUS
Related business
Manufacturer
Spire/Glasgow
Mission
Operational Commercial Imaging
Bus & Motor
CUBESAT 8U, Unknown motor
Mass
~15 kg wet, ~15 kg dry
Launch date (UTC)
2025-03-26 (1 year ago)
Launch vehicle
ELECTRON
Launch site
Rocket Lab Launch Complex (RLLC)
Object type
Payload
Rocket body
Debris
Shape & HBR
Box + 2 Pan, 0.2 m
Radar Cross Section
0.070 m², Medium (>0.1 m² and < 1m²)

Expand to show TLE details & history
Last TLE update: 12 hours ago

TLE from 12 hours ago
0 LEMUR 2 KREMPEL-BRO1
1 63357U 25061G   26264.88876602  .00002862  00000-0  15557-3 0  9997
2 63357  97.5725 240.3104 0016617 275.5340  84.3997 15.15207911 82273
Epoch: 2026-09-21T21:19Z
TLE epoch observation values (Epoch: 2026-09-21T21:19:49.384Z)
Latitude
0.00003°
Longitude
-80.4075°
Altitude
522.326 km
Speed
7.603 km/s
True Right ascension
16h 01m 14s
True Declination
0° 00' 00"
Sunlit
Object was in daylight at epoch
Visualization orbit readout
Latitude
Unknown
Longitude
Unknown
Altitude
Unknown
Speed
Unknown
Apparent Right ascension
Unknown
Apparent Declination
Unknown
Sunlit
N/A
Visualization observer readout
Local Sidereal Time
02:00:07
Azimuth
Unknown
Elevation
Unknown
Doppler factor
Unknown
Orbital elements
Apogee altitude
528.785 km
Perigee altitude
505.869 km
Semi-major axis
6,895.464 km
Eccentricity
0.00166
Inclination
97.5725°
RAAN
240.3104°
Arg. of periapsis
275.534°
True anomaly
84.58925°
Mean anomaly
84.3997°
Eccentric anomaly
84.49447°
Mean motion
3.79051 °/min
Orbital period
94.97 mins
BSTAR
0.00015557
Loading maneuver chart data...
Computing Atmospheric mass density...
Loading historical data...
Loading historical data...
Loading historical data...
Loading historical data...
Loading historical data...
Loading historical data...
Loading historical data...

Documentation

Showing up to 5 results
|